Time,TemperatureF,DewpointF,PressureIn,WindDirection,WindDirectionDegrees,WindSpeedMPH,WindSpeedGustMPH,Humidity,HourlyPrecipIn,Conditions,Clouds,dailyrainin,SoftwareType,DateUTC
2013-10-19 00:02:00,33.6,28.6,29.67,SW,225,0.0,0.0,82,0.00,,,0.00,WUHU21623XXSP,2013-10-19 05:02:00,
2013-10-19 00:07:00,33.6,28.6,29.67,SW,225,0.0,0.0,82,0.00,,,0.00,WUHU21623XXSP,2013-10-19 05:07:00,
2013-10-19 00:12:00,33.1,28.1,29.67,SW,225,0.0,0.0,82,0.00,,,0.00,WUHU21623XXSP,2013-10-19 05:12:00,
2013-10-19 00:17:00,33.1,28.4,29.67,SW,225,0.0,0.0,83,0.00,,,0.00,WUHU21623XXSP,2013-10-19 05:17:00,
2013-10-19 00:22:00,33.1,28.4,29.66,SW,225,0.0,0.0,83,0.00,,,0.00,WUHU21623XXSP,2013-10-19 05:22:00,
2013-10-19 00:27:00,33.1,28.4,29.66,SW,225,0.0,0.0,83,0.00,,,0.00,WUHU21623XXSP,2013-10-19 05:27:00,
2013-10-19 00:32:00,33.6,29.2,29.66,SW,225,0.0,0.0,84,0.00,,,0.00,WUHU21623XXSP,2013-10-19 05:32:00,
2013-10-19 00:37:00,34.0,29.3,29.66,SW,225,0.0,0.0,83,0.00,,,0.00,WUHU21623XXSP,2013-10-19 05:37:00,
2013-10-19 00:42:00,34.2,29.4,29.66,SW,225,0.0,0.0,83,0.00,,,0.00,WUHU21623XXSP,2013-10-19 05:42:00,
2013-10-19 00:47:00,34.2,29.4,29.66,SW,225,0.0,0.0,83,0.00,,,0.00,WUHU21623XXSP,2013-10-19 05:47:00,
2013-10-19 00:52:00,34.3,29.6,29.65,SW,225,0.0,0.0,83,0.00,,,0.00,WUHU21623XXSP,2013-10-19 05:52:00,
2013-10-19 00:57:00,34.3,29.6,29.65,SW,225,0.0,0.0,83,0.00,,,0.00,WUHU21623XXSP,2013-10-19 05:57:00,
2013-10-19 01:02:00,34.5,29.8,29.65,SW,225,0.0,0.0,83,0.00,,,0.00,WUHU21623XXSP,2013-10-19 06:02:00,
2013-10-19 01:08:00,34.3,29.6,29.65,SW,225,0.0,0.0,83,0.00,,,0.00,WUHU21623XXSP,2013-10-19 06:08:00,
2013-10-19 01:13:00,34.2,29.2,29.65,SW,225,0.0,0.0,82,0.00,,,0.00,WUHU21623XXSP,2013-10-19 06:13:00,
2013-10-19 01:18:00,34.0,29.3,29.65,SW,225,0.0,0.0,83,0.00,,,0.00,WUHU21623XXSP,2013-10-19 06:18:00,
2013-10-19 01:23:00,34.0,29.0,29.65,SW,225,0.0,0.0,82,0.00,,,0.00,WUHU21623XXSP,2013-10-19 06:23:00,
2013-10-19 01:28:00,34.2,29.4,29.65,SW,225,0.0,0.0,83,0.00,,,0.00,WUHU21623XXSP,2013-10-19 06:28:00,
2013-10-19 01:33:00,34.2,29.4,29.65,SW,225,0.0,0.0,83,0.00,,,0.00,WUHU21623XXSP,2013-10-19 06:33:00,
2013-10-19 01:38:00,34.2,29.2,29.64,SW,225,0.0,0.0,82,0.00,,,0.00,WUHU21623XXSP,2013-10-19 06:38:00,
2013-10-19 01:43:00,34.3,29.0,29.64,SW,225,0.0,0.0,81,0.00,,,0.00,WUHU21623XXSP,2013-10-19 06:43:00,
2013-10-19 01:48:00,34.2,29.2,29.64,SW,225,0.0,0.0,82,0.00,,,0.00,WUHU21623XXSP,2013-10-19 06:48:00,
2013-10-19 01:53:00,34.0,29.0,29.64,SW,225,0.0,0.0,82,0.00,,,0.00,WUHU21623XXSP,2013-10-19 06:53:00,
2013-10-19 01:58:00,33.8,28.8,29.64,SW,225,0.0,0.0,82,0.00,,,0.00,WUHU21623XXSP,2013-10-19 06:58:00,
2013-10-19 02:03:00,33.6,28.6,29.64,SW,225,0.0,0.0,82,0.00,,,0.00,WUHU21623XXSP,2013-10-19 07:03:00,
2013-10-19 02:08:00,33.4,28.8,29.64,SW,225,0.0,0.0,83,0.00,,,0.00,WUHU21623XXSP,2013-10-19 07:08:00,
2013-10-19 02:13:00,34.0,29.0,29.64,SW,225,0.0,0.0,82,0.00,,,0.00,WUHU21623XXSP,2013-10-19 07:13:00,
2013-10-19 02:18:00,34.3,29.3,29.64,SW,225,0.0,0.0,82,0.00,,,0.00,WUHU21623XXSP,2013-10-19 07:18:00,
2013-10-19 02:23:00,34.5,29.2,29.64,SW,225,0.0,0.0,81,0.00,,,0.00,WUHU21623XXSP,2013-10-19 07:23:00,
2013-10-19 02:28:00,35.4,29.5,29.64,SW,225,0.0,0.0,79,0.00,,,0.00,WUHU21623XXSP,2013-10-19 07:28:00,
2013-10-19 02:33:00,35.6,29.7,29.64,SW,225,0.0,0.0,79,0.00,,,0.00,WUHU21623XXSP,2013-10-19 07:33:00,
2013-10-19 02:38:00,35.4,29.5,29.64,SW,225,0.0,0.0,79,0.00,,,0.00,WUHU21623XXSP,2013-10-19 07:38:00,
2013-10-19 02:43:00,35.8,29.6,29.63,SW,225,0.0,0.0,78,0.00,,,0.00,WUHU21623XXSP,2013-10-19 07:43:00,
2013-10-19 02:48:00,35.8,29.6,29.63,SW,225,0.0,0.0,78,0.00,,,0.00,WUHU21623XXSP,2013-10-19 07:48:00,
2013-10-19 02:53:00,35.8,29.9,29.63,SW,225,0.0,0.0,79,0.00,,,0.00,WUHU21623XXSP,2013-10-19 07:53:00,
2013-10-19 02:58:00,35.4,29.8,29.63,SW,225,0.0,0.0,80,0.00,,,0.00,WUHU21623XXSP,2013-10-19 07:58:00,
2013-10-19 03:03:00,35.4,30.1,29.62,SW,225,0.0,0.0,81,0.00,,,0.00,WUHU21623XXSP,2013-10-19 08:03:00,
2013-10-19 03:08:00,35.4,30.1,29.62,SW,225,0.0,0.0,81,0.00,,,0.00,WUHU21623XXSP,2013-10-19 08:08:00,
2013-10-19 03:13:00,35.4,30.1,29.62,SW,225,0.0,0.0,81,0.00,,,0.00,WUHU21623XXSP,2013-10-19 08:13:00,
2013-10-19 03:18:00,35.2,30.2,29.62,SW,225,0.0,0.0,82,0.00,,,0.00,WUHU21623XXSP,2013-10-19 08:18:00,
2013-10-19 03:23:00,34.9,29.9,29.62,SW,225,0.0,0.0,82,0.00,,,0.00,WUHU21623XXSP,2013-10-19 08:23:00,
2013-10-19 03:28:00,34.5,29.8,29.62,SW,225,0.0,0.0,83,0.00,,,0.00,WUHU21623XXSP,2013-10-19 08:28:00,
2013-10-19 03:33:00,34.7,30.0,29.62,SSE,157,0.0,0.0,83,0.00,,,0.00,WUHU21623XXSP,2013-10-19 08:33:00,
2013-10-19 03:38:00,34.3,29.6,29.61,SSE,157,0.0,0.0,83,0.00,,,0.00,WUHU21623XXSP,2013-10-19 08:38:00,
2013-10-19 03:43:00,34.3,29.9,29.61,SSE,157,0.0,0.0,84,0.00,,,0.00,WUHU21623XXSP,2013-10-19 08:43:00,
2013-10-19 03:48:00,34.2,29.7,29.61,SSE,157,0.0,0.0,84,0.00,,,0.00,WUHU21623XXSP,2013-10-19 08:48:00,
2013-10-19 03:53:00,34.2,29.7,29.61,SSE,157,0.0,0.0,84,0.00,,,0.00,WUHU21623XXSP,2013-10-19 08:53:00,
2013-10-19 03:58:00,34.3,30.2,29.61,SSE,157,0.0,0.0,85,0.00,,,0.00,WUHU21623XXSP,2013-10-19 08:58:00,
2013-10-19 04:03:00,34.3,30.2,29.61,SSE,157,0.0,0.0,85,0.00,,,0.00,WUHU21623XXSP,2013-10-19 09:03:00,
2013-10-19 04:08:00,34.2,30.0,29.61,SSE,157,0.0,0.0,85,0.00,,,0.00,WUHU21623XXSP,2013-10-19 09:08:00,
2013-10-19 04:13:00,34.0,29.8,29.61,SSE,157,0.0,0.0,85,0.00,,,0.00,WUHU21623XXSP,2013-10-19 09:13:00,
2013-10-19 04:18:00,33.6,29.5,29.60,SSE,157,0.0,0.0,85,0.00,,,0.00,WUHU21623XXSP,2013-10-19 09:18:00,
2013-10-19 04:23:00,33.6,29.5,29.60,SSE,157,0.0,0.0,85,0.00,,,0.00,WUHU21623XXSP,2013-10-19 09:23:00,
2013-10-19 04:28:00,33.3,29.2,29.60,SSE,157,0.0,0.0,85,0.00,,,0.00,WUHU21623XXSP,2013-10-19 09:28:00,
2013-10-19 04:33:00,32.9,29.1,29.60,SSE,157,0.0,0.0,86,0.00,,,0.00,WUHU21623XXSP,2013-10-19 09:33:00,
2013-10-19 04:38:00,32.7,29.0,29.60,SSE,157,0.0,0.0,86,0.00,,,0.00,WUHU21623XXSP,2013-10-19 09:38:00,
2013-10-19 04:43:00,32.7,29.0,29.60,SSE,157,0.0,0.0,86,0.00,,,0.00,WUHU21623XXSP,2013-10-19 09:43:00,
2013-10-19 04:48:00,32.9,29.1,29.60,SSE,157,0.0,0.0,86,0.00,,,0.00,WUHU21623XXSP,2013-10-19 09:48:00,
2013-10-19 04:53:00,33.1,29.3,29.60,SSE,157,0.0,0.0,86,0.00,,,0.00,WUHU21623XXSP,2013-10-19 09:53:00,
2013-10-19 04:58:00,33.3,29.5,29.60,SSE,157,0.0,0.0,86,0.00,,,0.00,WUHU21623XXSP,2013-10-19 09:58:00,
2013-10-19 05:03:00,33.6,29.8,29.60,SSE,157,0.0,0.0,86,0.00,,,0.00,WUHU21623XXSP,2013-10-19 10:03:00,
2013-10-19 05:08:00,33.6,29.8,29.60,SSE,157,0.0,0.0,86,0.00,,,0.00,WUHU21623XXSP,2013-10-19 10:08:00,
2013-10-19 05:13:00,33.6,29.8,29.60,SSE,157,0.0,0.0,86,0.00,,,0.00,WUHU21623XXSP,2013-10-19 10:13:00,
2013-10-19 05:18:00,33.6,29.8,29.60,SSE,157,0.0,0.0,86,0.00,,,0.00,WUHU21623XXSP,2013-10-19 10:18:00,
2013-10-19 05:23:00,33.6,30.1,29.59,SSE,157,0.0,0.0,87,0.00,,,0.00,WUHU21623XXSP,2013-10-19 10:23:00,
2013-10-19 05:28:00,33.6,30.1,29.59,SSE,157,0.0,0.0,87,0.00,,,0.00,WUHU21623XXSP,2013-10-19 10:28:00,
2013-10-19 05:33:00,33.4,29.9,29.59,SSE,157,0.0,0.0,87,0.00,,,0.00,WUHU21623XXSP,2013-10-19 10:33:00,
2013-10-19 05:38:00,33.3,29.8,29.59,SSE,157,0.0,0.0,87,0.00,,,0.00,WUHU21623XXSP,2013-10-19 10:38:00,
2013-10-19 05:43:00,33.4,29.9,29.59,SSE,157,0.0,0.0,87,0.00,,,0.00,WUHU21623XXSP,2013-10-19 10:43:00,
2013-10-19 05:48:00,33.6,30.1,29.59,SSE,157,0.0,0.0,87,0.00,,,0.00,WUHU21623XXSP,2013-10-19 10:48:00,
2013-10-19 05:53:00,33.6,30.1,29.59,SSE,157,0.0,0.0,87,0.00,,,0.00,WUHU21623XXSP,2013-10-19 10:53:00,
2013-10-19 05:58:00,33.6,30.1,29.59,SSE,157,0.0,0.0,87,0.00,,,0.00,WUHU21623XXSP,2013-10-19 10:58:00,
2013-10-19 06:03:00,33.4,29.9,29.59,SSE,157,0.0,0.0,87,0.00,,,0.00,WUHU21623XXSP,2013-10-19 11:03:00,
2013-10-19 06:08:00,33.6,30.1,29.59,SSE,157,0.0,0.0,87,0.00,,,0.00,WUHU21623XXSP,2013-10-19 11:08:00,
2013-10-19 06:13:00,33.8,30.2,29.59,SSE,157,0.0,0.0,87,0.00,,,0.00,WUHU21623XXSP,2013-10-19 11:13:00,
2013-10-19 06:18:00,34.0,30.4,29.59,SSE,157,0.0,0.0,87,0.00,,,0.00,WUHU21623XXSP,2013-10-19 11:18:00,
2013-10-19 06:23:00,34.0,30.4,29.59,SSE,157,0.0,0.0,87,0.00,,,0.00,WUHU21623XXSP,2013-10-19 11:23:00,
2013-10-19 06:28:00,34.0,30.1,29.59,SSE,157,0.0,0.0,86,0.00,,,0.00,WUHU21623XXSP,2013-10-19 11:28:00,
2013-10-19 06:33:00,34.0,30.1,29.59,SSE,157,0.0,0.0,86,0.00,,,0.00,WUHU21623XXSP,2013-10-19 11:33:00,
2013-10-19 06:38:00,34.0,30.1,29.59,SSE,157,0.0,0.0,86,0.00,,,0.00,WUHU21623XXSP,2013-10-19 11:38:00,
2013-10-19 06:43:00,34.0,30.1,29.59,SSE,157,0.0,0.0,86,0.00,,,0.00,WUHU21623XXSP,2013-10-19 11:43:00,
2013-10-19 06:48:00,34.0,30.1,29.59,SSE,157,0.0,0.0,86,0.00,,,0.00,WUHU21623XXSP,2013-10-19 11:48:00,
2013-10-19 06:53:00,34.0,30.1,29.59,SSE,157,0.0,0.0,86,0.00,,,0.00,WUHU21623XXSP,2013-10-19 11:53:00,
2013-10-19 06:58:00,34.0,30.1,29.58,SSE,157,0.0,0.0,86,0.00,,,0.00,WUHU21623XXSP,2013-10-19 11:58:00,
2013-10-19 07:03:00,34.2,30.3,29.58,SSE,157,0.0,0.0,86,0.00,,,0.00,WUHU21623XXSP,2013-10-19 12:03:00,
2013-10-19 07:08:00,34.2,30.3,29.58,SSE,157,0.0,0.0,86,0.00,,,0.00,WUHU21623XXSP,2013-10-19 12:08:00,
2013-10-19 07:13:00,34.3,30.5,29.58,SSE,157,0.0,0.0,86,0.00,,,0.00,WUHU21623XXSP,2013-10-19 12:13:00,
2013-10-19 07:18:00,34.2,30.3,29.58,SSE,157,0.0,0.0,86,0.00,,,0.00,WUHU21623XXSP,2013-10-19 12:18:00,
2013-10-19 07:23:00,34.2,30.3,29.58,SSE,157,0.0,0.0,86,0.00,,,0.00,WUHU21623XXSP,2013-10-19 12:23:00,
2013-10-19 07:28:00,34.2,30.3,29.59,SSE,157,0.0,0.0,86,0.00,,,0.00,WUHU21623XXSP,2013-10-19 12:28:00,
2013-10-19 07:33:00,34.2,30.3,29.59,SSE,157,0.0,0.0,86,0.00,,,0.00,WUHU21623XXSP,2013-10-19 12:33:00,
2013-10-19 07:38:00,34.3,30.5,29.59,SSE,157,0.0,0.0,86,0.00,,,0.00,WUHU21623XXSP,2013-10-19 12:38:00,
2013-10-19 07:43:00,34.3,30.5,29.59,SSE,157,0.0,0.0,86,0.00,,,0.00,WUHU21623XXSP,2013-10-19 12:43:00,
2013-10-19 07:48:00,34.2,30.5,29.59,SSE,157,0.0,0.0,86,0.00,,,0.00,WUHU21623XXSP,2013-10-19 12:48:00,
2013-10-19 07:53:00,34.3,30.5,29.58,SSE,157,0.0,0.0,86,0.00,,,0.00,WUHU21623XXSP,2013-10-19 12:53:00,
2013-10-19 07:58:00,34.3,30.5,29.58,SSE,157,0.0,0.0,86,0.00,,,0.00,WUHU21623XXSP,2013-10-19 12:58:00,
2013-10-19 08:03:00,34.3,30.5,29.58,SSE,157,0.0,0.0,86,0.00,,,0.00,WUHU21623XXSP,2013-10-19 13:03:00,
2013-10-19 08:08:00,34.2,30.3,29.58,SSE,157,0.0,0.0,86,0.00,,,0.00,WUHU21623XXSP,2013-10-19 13:08:00,
2013-10-19 08:13:00,34.0,30.1,29.58,SSE,157,0.0,0.0,86,0.00,,,0.00,WUHU21623XXSP,2013-10-19 13:13:00,
2013-10-19 08:18:00,34.2,30.3,29.58,SSE,157,0.0,0.0,86,0.00,,,0.00,WUHU21623XXSP,2013-10-19 13:18:00,
2013-10-19 08:23:00,34.2,30.6,29.59,SSE,157,0.0,0.0,87,0.00,,,0.00,WUHU21623XXSP,2013-10-19 13:23:00,
2013-10-19 08:28:00,34.3,30.5,29.58,SSE,157,0.0,0.0,86,0.00,,,0.00,WUHU21623XXSP,2013-10-19 13:28:00,
2013-10-19 08:33:00,34.3,30.5,29.58,SSE,157,0.0,0.0,86,0.00,,,0.00,WUHU21623XXSP,2013-10-19 13:33:00,
2013-10-19 08:38:00,34.3,30.5,29.58,SSE,157,0.0,0.0,86,0.00,,,0.00,WUHU21623XXSP,2013-10-19 13:38:00,
2013-10-19 08:43:00,34.7,30.8,29.58,SSE,157,0.0,0.0,86,0.00,,,0.00,WUHU21623XXSP,2013-10-19 13:43:00,
2013-10-19 08:48:00,34.9,31.0,29.59,SSE,157,0.0,0.0,86,0.00,,,0.00,WUHU21623XXSP,2013-10-19 13:48:00,
2013-10-19 08:53:00,35.2,31.4,29.59,SSE,157,0.0,0.0,86,0.00,,,0.00,WUHU21623XXSP,2013-10-19 13:53:00,
2013-10-19 08:58:00,35.4,31.6,29.59,SSE,157,0.0,0.0,86,0.00,,,0.00,WUHU21623XXSP,2013-10-19 13:58:00,
2013-10-19 09:03:00,35.4,31.3,29.59,SSE,157,0.0,0.0,85,0.00,,,0.00,WUHU21623XXSP,2013-10-19 14:03:00,
2013-10-19 09:08:00,35.4,31.3,29.59,SSE,157,0.0,0.0,85,0.00,,,0.00,WUHU21623XXSP,2013-10-19 14:08:00,
2013-10-19 09:13:00,35.8,31.6,29.59,SSE,157,0.0,0.0,85,0.00,,,0.00,WUHU21623XXSP,2013-10-19 14:13:00,
2013-10-19 09:18:00,35.8,31.6,29.59,SSE,157,0.0,0.0,85,0.00,,,0.00,WUHU21623XXSP,2013-10-19 14:18:00,
2013-10-19 09:23:00,36.0,31.8,29.59,SSE,157,0.0,0.0,85,0.00,,,0.00,WUHU21623XXSP,2013-10-19 14:23:00,
2013-10-19 09:28:00,36.0,31.5,29.58,SSE,157,0.0,0.0,84,0.00,,,0.00,WUHU21623XXSP,2013-10-19 14:28:00,
2013-10-19 09:33:00,36.1,31.7,29.59,SSE,157,0.0,0.0,84,0.00,,,0.00,WUHU21623XXSP,2013-10-19 14:33:00,
2013-10-19 09:38:00,36.3,31.9,29.59,SSE,157,0.0,0.0,84,0.00,,,0.00,WUHU21623XXSP,2013-10-19 14:38:00,
2013-10-19 09:43:00,36.5,32.1,29.59,SSE,157,0.0,0.0,84,0.00,,,0.00,WUHU21623XXSP,2013-10-19 14:43:00,
2013-10-19 09:48:00,36.5,31.8,29.59,SSE,157,0.0,0.0,83,0.00,,,0.00,WUHU21623XXSP,2013-10-19 14:48:00,
2013-10-19 09:53:00,36.7,32.0,29.59,SSE,157,0.0,0.0,83,0.00,,,0.00,WUHU21623XXSP,2013-10-19 14:53:00,
2013-10-19 09:58:00,36.7,32.0,29.59,SSE,157,0.0,0.0,83,0.00,,,0.00,WUHU21623XXSP,2013-10-19 14:58:00,
2013-10-19 10:03:00,37.2,32.8,29.58,SSE,157,0.0,0.0,84,0.00,,,0.00,WUHU21623XXSP,2013-10-19 15:03:00,
2013-10-19 10:08:00,38.7,33.9,29.58,South,180,0.0,0.0,83,0.00,,,0.00,WUHU21623XXSP,2013-10-19 15:08:00,
2013-10-19 10:13:00,39.4,34.1,29.58,SSE,157,0.0,0.0,81,0.00,,,0.00,WUHU21623XXSP,2013-10-19 15:13:00,
2013-10-19 10:18:00,39.0,33.1,29.59,South,180,0.0,0.0,79,0.00,,,0.00,WUHU21623XXSP,2013-10-19 15:18:00,
2013-10-19 10:23:00,39.4,34.1,29.58,SSW,202,0.0,0.0,81,0.00,,,0.00,WUHU21623XXSP,2013-10-19 15:23:00,
2013-10-19 10:28:00,39.4,33.8,29.59,WSW,247,0.0,0.0,80,0.00,,,0.00,WUHU21623XXSP,2013-10-19 15:28:00,
2013-10-19 10:33:00,39.4,33.4,29.58,West,270,0.0,0.0,79,0.00,,,0.00,WUHU21623XXSP,2013-10-19 15:33:00,
2013-10-19 10:38:00,38.3,32.7,29.58,West,270,0.0,0.0,80,0.00,,,0.00,WUHU21623XXSP,2013-10-19 15:38:00,
2013-10-19 10:43:00,38.3,32.7,29.58,West,270,0.0,0.0,80,0.00,,,0.00,WUHU21623XXSP,2013-10-19 15:43:00,
2013-10-19 10:48:00,38.7,33.1,29.58,West,270,0.0,0.0,80,0.00,,,0.00,WUHU21623XXSP,2013-10-19 15:48:00,
2013-10-19 10:53:00,39.0,33.4,29.58,WNW,292,0.0,0.0,80,0.00,,,0.00,WUHU21623XXSP,2013-10-19 15:53:00,
2013-10-19 10:58:00,38.8,33.3,29.58,West,270,0.0,0.0,80,0.00,,,0.00,WUHU21623XXSP,2013-10-19 15:58:00,
2013-10-19 11:03:00,39.9,34.6,29.58,West,270,0.0,0.0,81,0.00,,,0.00,WUHU21623XXSP,2013-10-19 16:03:00,
2013-10-19 11:08:00,40.1,33.8,29.58,West,270,0.0,0.0,78,0.00,,,0.00,WUHU21623XXSP,2013-10-19 16:08:00,
2013-10-19 11:13:00,41.5,34.8,29.58,WNW,292,4.3,5.4,77,0.00,,,0.00,WUHU21623XXSP,2013-10-19 16:13:00,
2013-10-19 11:18:00,42.1,34.4,29.58,NNE,22,2.7,5.4,74,0.00,,,0.00,WUHU21623XXSP,2013-10-19 16:18:00,
2013-10-19 11:23:00,43.7,35.3,29.57,NW,315,3.8,6.7,72,0.00,,,0.00,WUHU21623XXSP,2013-10-19 16:23:00,
2013-10-19 11:28:00,43.5,35.1,29.58,WNW,292,0.0,6.7,72,0.00,,,0.00,WUHU21623XXSP,2013-10-19 16:28:00,
2013-10-19 11:33:00,42.1,34.7,29.58,West,270,0.0,3.8,75,0.00,,,0.00,WUHU21623XXSP,2013-10-19 16:33:00,
2013-10-19 11:38:00,41.4,34.6,29.58,WNW,292,0.0,0.5,77,0.00,,,0.00,WUHU21623XXSP,2013-10-19 16:38:00,
2013-10-19 11:43:00,40.6,34.6,29.58,WNW,292,0.0,0.5,79,0.00,,,0.00,WUHU21623XXSP,2013-10-19 16:43:00,
2013-10-19 11:48:00,40.5,34.4,29.58,WNW,292,0.0,0.0,79,0.00,,,0.00,WUHU21623XXSP,2013-10-19 16:48:00,
2013-10-19 11:53:00,40.1,34.1,29.58,WNW,292,0.0,0.0,79,0.00,,,0.00,WUHU21623XXSP,2013-10-19 16:53:00,
2013-10-19 11:58:00,39.9,33.6,29.58,WNW,292,0.0,0.0,78,0.00,,,0.00,WUHU21623XXSP,2013-10-19 16:58:00,
2013-10-19 12:03:00,39.9,33.6,29.58,WNW,292,0.0,0.0,78,0.00,,,0.00,WUHU21623XXSP,2013-10-19 17:03:00,
2013-10-19 12:08:00,40.1,33.8,29.58,WNW,292,0.0,0.0,78,0.00,,,0.00,WUHU21623XXSP,2013-10-19 17:08:00,
2013-10-19 12:13:00,40.1,33.5,29.58,NW,315,0.0,0.0,77,0.00,,,0.00,WUHU21623XXSP,2013-10-19 17:13:00,
2013-10-19 12:18:00,40.1,33.1,29.58,NNW,337,0.0,3.4,76,0.00,,,0.00,WUHU21623XXSP,2013-10-19 17:18:00,
2013-10-19 12:23:00,39.4,32.4,29.58,NW,315,0.0,3.6,76,0.00,,,0.00,WUHU21623XXSP,2013-10-19 17:23:00,
2013-10-19 12:28:00,38.8,32.2,29.58,WNW,292,0.0,3.6,77,0.00,,,0.00,WUHU21623XXSP,2013-10-19 17:28:00,
2013-10-19 12:33:00,38.3,32.1,29.57,NW,315,0.0,4.3,78,0.00,,,0.00,WUHU21623XXSP,2013-10-19 17:33:00,
2013-10-19 12:38:00,38.1,32.5,29.57,NW,315,0.0,7.6,80,0.00,,,0.00,WUHU21623XXSP,2013-10-19 17:38:00,
2013-10-19 12:43:00,38.1,32.8,29.57,West,270,0.0,7.6,81,0.00,,,0.00,WUHU21623XXSP,2013-10-19 17:43:00,
2013-10-19 12:48:00,37.9,32.9,29.57,NW,315,0.0,8.5,82,0.00,,,0.00,WUHU21623XXSP,2013-10-19 17:48:00,
2013-10-19 12:53:00,37.9,33.2,29.57,NNW,337,0.0,8.5,83,0.00,,,0.00,WUHU21623XXSP,2013-10-19 17:53:00,
2013-10-19 12:58:00,37.9,33.2,29.57,NW,315,0.0,6.5,83,0.00,,,0.00,WUHU21623XXSP,2013-10-19 17:58:00,
2013-10-19 13:03:00,37.8,33.3,29.58,NW,315,0.0,3.8,84,0.00,,,0.00,WUHU21623XXSP,2013-10-19 18:03:00,
2013-10-19 13:08:00,37.6,33.2,29.58,NW,315,0.0,3.1,84,0.00,,,0.00,WUHU21623XXSP,2013-10-19 18:08:00,
2013-10-19 13:13:00,37.8,33.3,29.57,NNW,337,0.0,0.0,84,0.00,,,0.00,WUHU21623XXSP,2013-10-19 18:13:00,
2013-10-19 13:18:00,37.9,33.5,29.57,NNW,337,0.0,0.0,84,0.00,,,0.00,WUHU21623XXSP,2013-10-19 18:18:00,
2013-10-19 13:23:00,38.3,34.2,29.57,NNW,337,0.0,0.0,85,0.00,,,0.00,WUHU21623XXSP,2013-10-19 18:23:00,
2013-10-19 13:28:00,38.7,34.2,29.57,NE,45,0.0,0.0,84,0.00,,,0.00,WUHU21623XXSP,2013-10-19 18:28:00,
2013-10-19 13:33:00,39.9,35.7,29.57,NNW,337,0.2,4.5,85,0.00,,,0.00,WUHU21623XXSP,2013-10-19 18:33:00,
2013-10-19 13:38:00,41.7,36.6,29.57,North,0,2.0,4.5,82,0.00,,,0.00,WUHU21623XXSP,2013-10-19 18:38:00,
2013-10-19 13:43:00,43.0,36.9,29.57,North,0,3.4,4.3,79,0.00,,,0.00,WUHU21623XXSP,2013-10-19 18:43:00,
2013-10-19 13:48:00,43.7,36.9,29.57,NNW,337,3.1,6.0,77,0.00,,,0.00,WUHU21623XXSP,2013-10-19 18:48:00,
2013-10-19 13:53:00,44.4,36.6,29.57,NNW,337,2.0,6.0,74,0.00,,,0.00,WUHU21623XXSP,2013-10-19 18:53:00,
2013-10-19 13:58:00,43.5,35.8,29.57,NNW,337,6.3,6.3,74,0.00,,,0.00,WUHU21623XXSP,2013-10-19 18:58:00,
2013-10-19 14:03:00,43.0,34.3,29.57,NNW,337,0.0,6.3,71,0.00,,,0.00,WUHU21623XXSP,2013-10-19 19:03:00,
2013-10-19 14:08:00,42.6,33.9,29.57,North,0,0.0,4.7,71,0.00,,,0.00,WUHU21623XXSP,2013-10-19 19:08:00,
2013-10-19 14:13:00,42.4,33.4,29.57,NE,45,2.0,4.7,70,0.00,,,0.00,WUHU21623XXSP,2013-10-19 19:13:00,
2013-10-19 14:18:00,41.9,33.2,29.57,West,270,0.0,3.6,71,0.00,,,0.00,WUHU21623XXSP,2013-10-19 19:18:00,
2013-10-19 14:23:00,41.4,32.8,29.57,ENE,65,0.4,3.6,71,0.00,,,0.00,WUHU21623XXSP,2013-10-19 19:23:00,
2013-10-19 14:28:00,41.2,32.5,29.57,NNW,337,0.0,4.5,71,0.00,,,0.00,WUHU21623XXSP,2013-10-19 19:28:00,
2013-10-19 14:33:00,40.8,32.5,29.57,NNE,22,0.0,4.5,72,0.00,,,0.00,WUHU21623XXSP,2013-10-19 19:33:00,
2013-10-19 14:38:00,40.6,32.6,29.57,NNE,22,0.0,0.0,73,0.00,,,0.00,WUHU21623XXSP,2013-10-19 19:38:00,
2013-10-19 14:43:00,40.8,32.8,29.57,NNW,337,0.0,0.0,73,0.00,,,0.00,WUHU21623XXSP,2013-10-19 19:43:00,
2013-10-19 14:48:00,40.8,33.1,29.57,NW,315,0.0,0.0,74,0.00,,,0.00,WUHU21623XXSP,2013-10-19 19:48:00,
2013-10-19 14:53:00,40.6,33.3,29.58,NW,315,0.0,0.0,75,0.00,,,0.00,WUHU21623XXSP,2013-10-19 19:53:00,
2013-10-19 14:58:00,40.6,33.6,29.58,North,0,0.0,3.6,76,0.00,,,0.00,WUHU21623XXSP,2013-10-19 19:58:00,
2013-10-19 15:03:00,40.3,32.9,29.58,NNW,337,0.0,3.6,75,0.00,,,0.00,WUHU21623XXSP,2013-10-19 20:03:00,
2013-10-19 15:08:00,39.9,32.9,29.58,NW,315,4.3,6.9,76,0.00,,,0.00,WUHU21623XXSP,2013-10-19 20:08:00,
2013-10-19 15:13:00,39.7,32.8,29.58,NW,315,0.0,6.9,76,0.00,,,0.00,WUHU21623XXSP,2013-10-19 20:13:00,
2013-10-19 15:18:00,39.7,32.8,29.59,NW,315,0.0,4.7,76,0.00,,,0.00,WUHU21623XXSP,2013-10-19 20:18:00,
2013-10-19 15:23:00,39.4,32.4,29.59,West,270,6.3,10.3,76,0.00,,,0.00,WUHU21623XXSP,2013-10-19 20:23:00,
2013-10-19 15:28:00,39.0,32.8,29.59,NNW,337,5.1,10.3,78,0.00,,,0.00,WUHU21623XXSP,2013-10-19 20:28:00,
2013-10-19 15:33:00,38.3,32.7,29.59,NNW,337,0.0,8.9,80,0.00,,,0.00,WUHU21623XXSP,2013-10-19 20:33:00,
2013-10-19 15:38:00,37.8,32.5,29.59,NNW,337,0.0,4.7,81,0.00,,,0.00,WUHU21623XXSP,2013-10-19 20:38:00,
2013-10-19 15:43:00,37.6,32.3,29.59,NNW,337,0.0,6.0,81,0.00,,,0.00,WUHU21623XXSP,2013-10-19 20:43:00,
2013-10-19 15:48:00,37.8,33.0,29.59,North,0,0.0,6.0,83,0.00,,,0.00,WUHU21623XXSP,2013-10-19 20:48:00,
2013-10-19 15:53:00,37.6,32.9,29.59,North,0,0.0,0.0,83,0.00,,,0.00,WUHU21623XXSP,2013-10-19 20:53:00,
2013-10-19 15:58:00,37.4,32.7,29.59,NE,45,0.0,1.3,83,0.00,,,0.00,WUHU21623XXSP,2013-10-19 20:58:00,
2013-10-19 16:03:00,37.4,32.7,29.60,North,0,0.0,1.3,83,0.00,,,0.00,WUHU21623XXSP,2013-10-19 21:03:00,
2013-10-19 16:08:00,37.6,32.6,29.59,NNE,22,0.0,0.0,82,0.00,,,0.00,WUHU21623XXSP,2013-10-19 21:08:00,
2013-10-19 16:13:00,37.2,32.2,29.59,NE,45,0.0,0.0,82,0.00,,,0.00,WUHU21623XXSP,2013-10-19 21:13:00,
2013-10-19 16:18:00,37.2,32.5,29.59,NE,45,0.0,0.0,83,0.00,,,0.00,WUHU21623XXSP,2013-10-19 21:18:00,
2013-10-19 16:23:00,37.4,32.4,29.59,NE,45,0.0,0.0,82,0.00,,,0.00,WUHU21623XXSP,2013-10-19 21:23:00,
2013-10-19 16:28:00,38.3,33.3,29.59,NNE,22,0.0,0.0,82,0.00,,,0.00,WUHU21623XXSP,2013-10-19 21:28:00,
2013-10-19 16:33:00,38.8,33.3,29.60,NE,45,0.0,0.0,80,0.00,,,0.00,WUHU21623XXSP,2013-10-19 21:33:00,
2013-10-19 16:38:00,39.2,33.9,29.60,NNE,22,0.0,0.0,81,0.00,,,0.00,WUHU21623XXSP,2013-10-19 21:38:00,
2013-10-19 16:43:00,39.6,33.9,29.60,NNW,337,0.0,0.0,80,0.00,,,0.00,WUHU21623XXSP,2013-10-19 21:43:00,
2013-10-19 16:48:00,39.7,34.1,29.60,NNW,337,0.0,0.0,80,0.00,,,0.00,WUHU21623XXSP,2013-10-19 21:48:00,
2013-10-19 16:53:00,39.9,34.3,29.60,NNW,337,0.0,0.4,80,0.00,,,0.00,WUHU21623XXSP,2013-10-19 21:53:00,
2013-10-19 16:58:00,39.4,33.4,29.60,NW,315,4.9,9.2,79,0.00,,,0.00,WUHU21623XXSP,2013-10-19 21:58:00,
2013-10-19 17:03:00,38.3,32.7,29.61,NNW,337,0.0,9.2,80,0.00,,,0.00,WUHU21623XXSP,2013-10-19 22:03:00,
2013-10-19 17:08:00,37.9,32.6,29.61,NNW,337,0.0,7.6,81,0.00,,,0.00,WUHU21623XXSP,2013-10-19 22:08:00,
2013-10-19 17:13:00,37.4,32.1,29.61,NNW,337,0.0,0.0,81,0.00,,,0.00,WUHU21623XXSP,2013-10-19 22:13:00,
2013-10-19 17:18:00,37.2,32.2,29.61,NNW,337,8.1,8.1,82,0.00,,,0.00,WUHU21623XXSP,2013-10-19 22:18:00,
2013-10-19 17:23:00,36.9,31.9,29.61,NNW,337,0.0,8.1,82,0.00,,,0.00,WUHU21623XXSP,2013-10-19 22:23:00,
2013-10-19 17:28:00,36.5,31.5,29.61,North,0,0.0,4.3,82,0.00,,,0.00,WUHU21623XXSP,2013-10-19 22:28:00,
2013-10-19 17:33:00,36.3,31.6,29.61,NNW,337,0.0,0.0,83,0.00,,,0.00,WUHU21623XXSP,2013-10-19 22:33:00,
2013-10-19 17:38:00,36.0,31.2,29.61,North,0,0.0,0.0,83,0.00,,,0.00,WUHU21623XXSP,2013-10-19 22:38:00,
2013-10-19 17:43:00,35.8,31.1,29.61,North,0,0.0,0.0,83,0.00,,,0.00,WUHU21623XXSP,2013-10-19 22:43:00,
2013-10-19 17:48:00,35.8,31.1,29.61,North,0,0.0,0.0,83,0.00,,,0.00,WUHU21623XXSP,2013-10-19 22:48:00,
2013-10-19 17:53:00,35.4,31.0,29.62,North,0,0.0,0.0,84,0.00,,,0.00,WUHU21623XXSP,2013-10-19 22:53:00,
2013-10-19 17:58:00,34.3,30.2,29.62,North,0,0.0,0.0,85,0.00,,,0.00,WUHU21623XXSP,2013-10-19 22:58:00,
2013-10-19 18:03:00,34.3,30.5,29.62,NNE,22,0.0,0.0,86,0.00,,,0.00,WUHU21623XXSP,2013-10-19 23:03:00,
2013-10-19 18:08:00,34.3,30.5,29.62,NNE,22,0.0,0.0,86,0.00,,,0.00,WUHU21623XXSP,2013-10-19 23:08:00,
2013-10-19 18:13:00,34.3,30.5,29.62,NNE,22,0.0,0.0,86,0.00,,,0.00,WUHU21623XXSP,2013-10-19 23:13:00,
2013-10-19 18:18:00,34.0,29.8,29.62,NNE,22,0.0,0.0,85,0.00,,,0.00,WUHU21623XXSP,2013-10-19 23:18:00,
2013-10-19 18:23:00,33.8,29.7,29.62,NNE,22,0.0,0.0,85,0.00,,,0.00,WUHU21623XXSP,2013-10-19 23:23:00,
2013-10-19 18:28:00,34.2,30.0,29.63,NNE,22,0.0,0.0,85,0.00,,,0.00,WUHU21623XXSP,2013-10-19 23:28:00,
2013-10-19 18:33:00,34.3,30.5,29.63,NNE,22,0.0,0.0,86,0.00,,,0.00,WUHU21623XXSP,2013-10-19 23:33:00,
2013-10-19 18:38:00,34.3,30.5,29.63,NNE,22,0.0,0.0,86,0.00,,,0.00,WUHU21623XXSP,2013-10-19 23:38:00,
2013-10-19 18:43:00,34.3,30.5,29.63,NNE,22,0.0,0.0,86,0.00,,,0.00,WUHU21623XXSP,2013-10-19 23:43:00,
2013-10-19 18:48:00,34.3,30.5,29.63,NNE,22,0.0,0.0,86,0.00,,,0.00,WUHU21623XXSP,2013-10-19 23:48:00,
2013-10-19 18:53:00,34.3,30.5,29.63,NNE,22,0.0,0.0,86,0.00,,,0.00,WUHU21623XXSP,2013-10-19 23:53:00,
2013-10-19 18:58:00,34.3,30.8,29.63,NNE,22,0.0,0.0,87,0.00,,,0.00,WUHU21623XXSP,2013-10-19 23:58:00,
2013-10-19 19:03:00,34.0,30.4,29.64,NNE,22,0.0,0.0,87,0.07,,,0.07,WUHU21623XXSP,2013-10-20 00:03:00,
2013-10-19 19:08:00,33.6,30.1,29.64,NNE,22,0.0,0.0,87,0.07,,,0.07,WUHU21623XXSP,2013-10-20 00:08:00,
2013-10-19 19:13:00,33.6,30.1,29.64,NNE,22,0.0,0.0,87,0.47,,,0.47,WUHU21623XXSP,2013-10-20 00:13:00,
2013-10-19 19:18:00,33.8,30.2,29.64,NNE,22,0.0,0.0,87,0.47,,,0.47,WUHU21623XXSP,2013-10-20 00:18:00,
2013-10-19 19:23:00,34.0,30.4,29.64,NNE,22,0.0,0.0,87,0.47,,,0.47,WUHU21623XXSP,2013-10-20 00:23:00,
2013-10-19 19:28:00,34.2,30.6,29.64,NNE,22,0.0,0.0,87,0.47,,,0.47,WUHU21623XXSP,2013-10-20 00:28:00,
2013-10-19 19:33:00,33.8,30.2,29.64,NNE,22,0.0,0.0,87,0.47,,,0.47,WUHU21623XXSP,2013-10-20 00:33:00,
2013-10-19 19:38:00,33.8,30.2,29.64,NNE,22,0.0,0.0,87,0.47,,,0.47,WUHU21623XXSP,2013-10-20 00:38:00,
2013-10-19 19:43:00,33.8,30.2,29.64,NNE,22,0.0,0.0,87,0.47,,,0.47,WUHU21623XXSP,2013-10-20 00:43:00,
2013-10-19 19:48:00,34.2,30.6,29.64,NNE,22,0.0,0.0,87,0.47,,,0.47,WUHU21623XXSP,2013-10-20 00:48:00,
2013-10-19 19:53:00,34.3,30.8,29.64,NNE,22,0.0,0.0,87,0.47,,,0.47,WUHU21623XXSP,2013-10-20 00:53:00,
2013-10-19 19:58:00,34.9,31.6,29.65,WNW,292,0.0,0.0,88,0.47,,,0.47,WUHU21623XXSP,2013-10-20 00:58:00,
2013-10-19 20:03:00,35.1,31.8,29.64,WNW,292,0.0,0.0,88,0.40,,,0.47,WUHU21623XXSP,2013-10-20 01:03:00,
2013-10-19 20:08:00,35.2,31.7,29.64,WNW,292,0.0,0.0,87,0.40,,,0.47,WUHU21623XXSP,2013-10-20 01:08:00,
2013-10-19 20:13:00,35.4,31.9,29.64,NW,315,0.0,0.0,87,0.00,,,0.47,WUHU21623XXSP,2013-10-20 01:13:00,
2013-10-19 20:18:00,35.4,31.9,29.64,WNW,292,0.0,0.0,87,0.00,,,0.47,WUHU21623XXSP,2013-10-20 01:18:00,
2013-10-19 20:23:00,35.8,31.9,29.64,NW,315,0.0,0.0,86,0.00,,,0.47,WUHU21623XXSP,2013-10-20 01:23:00,
2013-10-19 20:28:00,35.8,31.9,29.64,NW,315,0.0,0.0,86,0.00,,,0.47,WUHU21623XXSP,2013-10-20 01:28:00,
2013-10-19 20:33:00,35.8,31.9,29.64,NW,315,0.0,2.5,86,0.02,,,0.49,WUHU21623XXSP,2013-10-20 01:33:00,
2013-10-19 20:38:00,35.8,31.9,29.64,NW,315,0.0,2.5,86,0.02,,,0.49,WUHU21623XXSP,2013-10-20 01:38:00,
2013-10-19 20:43:00,35.8,31.9,29.64,NW,315,0.0,0.0,86,0.02,,,0.49,WUHU21623XXSP,2013-10-20 01:43:00,
2013-10-19 20:48:00,35.4,31.6,29.64,NW,315,0.0,0.0,86,0.02,,,0.49,WUHU21623XXSP,2013-10-20 01:48:00,
2013-10-19 20:53:00,35.4,31.6,29.64,WNW,292,0.0,7.4,86,0.02,,,0.49,WUHU21623XXSP,2013-10-20 01:53:00,
2013-10-19 20:58:00,35.1,30.9,29.64,WNW,292,0.0,7.4,85,0.02,,,0.49,WUHU21623XXSP,2013-10-20 01:58:00,
2013-10-19 21:03:00,35.2,31.4,29.64,NW,315,0.0,1.9,86,0.02,,,0.49,WUHU21623XXSP,2013-10-20 02:03:00,
2013-10-19 21:08:00,35.2,31.4,29.64,NW,315,0.0,0.0,86,0.02,,,0.49,WUHU21623XXSP,2013-10-20 02:08:00,
2013-10-19 21:13:00,35.4,31.6,29.64,WNW,292,0.0,0.0,86,0.02,,,0.49,WUHU21623XXSP,2013-10-20 02:13:00,
2013-10-19 21:18:00,35.4,31.6,29.64,WNW,292,0.0,0.0,86,0.02,,,0.49,WUHU21623XXSP,2013-10-20 02:18:00,
2013-10-19 21:23:00,35.2,31.4,29.64,WNW,292,0.0,0.0,86,0.02,,,0.49,WUHU21623XXSP,2013-10-20 02:23:00,
2013-10-19 21:28:00,35.8,31.9,29.64,West,270,0.0,0.0,86,0.02,,,0.49,WUHU21623XXSP,2013-10-20 02:28:00,
2013-10-19 21:33:00,35.8,31.9,29.64,West,270,0.0,4.0,86,0.00,,,0.49,WUHU21623XXSP,2013-10-20 02:33:00,
2013-10-19 21:38:00,35.8,31.9,29.64,WSW,247,0.0,4.0,86,0.00,,,0.49,WUHU21623XXSP,2013-10-20 02:38:00,
2013-10-19 21:43:00,35.4,31.6,29.64,NW,315,0.0,0.1,86,0.00,,,0.49,WUHU21623XXSP,2013-10-20 02:43:00,
2013-10-19 21:48:00,35.2,31.4,29.64,West,270,0.0,0.1,86,0.00,,,0.49,WUHU21623XXSP,2013-10-20 02:48:00,
2013-10-19 21:53:00,34.9,30.7,29.64,West,270,0.0,4.3,85,0.00,,,0.49,WUHU21623XXSP,2013-10-20 02:53:00,
2013-10-19 21:58:00,34.7,30.6,29.64,NW,315,0.0,4.3,85,0.00,,,0.49,WUHU21623XXSP,2013-10-20 02:58:00,
2013-10-19 22:03:00,34.7,30.8,29.64,WNW,292,0.0,7.4,86,0.00,,,0.49,WUHU21623XXSP,2013-10-20 03:03:00,
2013-10-19 22:08:00,34.7,30.8,29.64,WNW,292,0.0,7.4,86,0.00,,,0.49,WUHU21623XXSP,2013-10-20 03:08:00,
2013-10-19 22:13:00,34.7,30.8,29.64,WSW,247,0.0,9.4,86,0.00,,,0.49,WUHU21623XXSP,2013-10-20 03:13:00,
2013-10-19 22:18:00,34.5,30.7,29.64,NNW,337,0.0,9.4,86,0.00,,,0.49,WUHU21623XXSP,2013-10-20 03:18:00,
2013-10-19 22:23:00,34.5,30.7,29.64,NW,315,0.0,6.7,86,0.00,,,0.49,WUHU21623XXSP,2013-10-20 03:23:00,
2013-10-19 22:28:00,34.5,30.7,29.64,West,281,0.5,6.3,86,0.00,,,0.49,WUHU21623XXSP,2013-10-20 03:28:00,
2013-10-19 22:33:00,34.5,30.7,29.64,West,270,0.0,6.5,86,0.00,,,0.49,WUHU21623XXSP,2013-10-20 03:33:00,
2013-10-19 22:38:00,34.7,31.2,29.64,NW,304,0.7,6.5,87,0.00,,,0.49,WUHU21623XXSP,2013-10-20 03:38:00,
2013-10-19 22:43:00,34.3,30.8,29.64,NW,308,0.7,5.8,87,0.00,,,0.49,WUHU21623XXSP,2013-10-20 03:43:00,
2013-10-19 22:48:00,34.3,30.8,29.64,NW,306,1.3,7.6,87,0.00,,,0.49,WUHU21623XXSP,2013-10-20 03:48:00,
2013-10-19 22:53:00,34.3,30.8,29.64,NW,304,1.7,7.6,87,0.00,,,0.49,WUHU21623XXSP,2013-10-20 03:53:00,
2013-10-19 22:58:00,34.3,30.8,29.64,WNW,299,1.8,8.3,87,0.00,,,0.49,WUHU21623XXSP,2013-10-20 03:58:00,
2013-10-19 23:01:00,34.0,30.4,29.64,WNW,292,0.0,8.3,87,0.00,,,0.49,WUHU21623XXSP,2013-10-20 04:01:00,
2013-10-19 23:06:00,34.0,30.4,29.64,NW,315,0.0,9.6,87,0.00,,,0.49,WUHU21623XXSP,2013-10-20 04:06:00,
2013-10-19 23:11:00,34.2,30.7,29.64,WNW,302,1.3,9.6,87,0.00,,,0.49,WUHU21623XXSP,2013-10-20 04:11:00,
2013-10-19 23:16:00,34.2,30.6,29.64,NW,315,0.0,6.3,87,0.00,,,0.49,WUHU21623XXSP,2013-10-20 04:16:00,
2013-10-19 23:21:00,34.2,30.7,29.64,NW,310,1.3,6.3,87,0.00,,,0.49,WUHU21623XXSP,2013-10-20 04:21:00,
2013-10-19 23:26:00,34.0,30.5,29.64,NW,308,1.4,5.4,87,0.00,,,0.49,WUHU21623XXSP,2013-10-20 04:26:00,
2013-10-19 23:31:00,34.0,30.4,29.64,NNW,337,0.7,7.6,87,0.00,,,0.49,WUHU21623XXSP,2013-10-20 04:31:00,
2013-10-19 23:36:00,34.0,30.4,29.64,WNW,292,0.0,7.6,87,0.00,,,0.49,WUHU21623XXSP,2013-10-20 04:36:00,
2013-10-19 23:41:00,34.2,30.6,29.64,NW,315,6.0,6.0,87,0.00,,,0.49,WUHU21623XXSP,2013-10-20 04:41:00,
2013-10-19 23:46:00,34.2,30.6,29.64,West,270,0.0,6.0,87,0.00,,,0.49,WUHU21623XXSP,2013-10-20 04:46:00,
2013-10-19 23:51:00,34.2,30.6,29.64,West,270,0.0,4.7,87,0.00,,,0.49,WUHU21623XXSP,2013-10-20 04:51:00,
2013-10-19 23:56:00,34.0,30.4,29.64,WNW,292,0.0,6.3,87,0.00,,,0.49,WUHU21623XXSP,2013-10-20 04:56:00,